[[{"header":{"parameterUnit":"m.s-1","parameterCategory":1,"la1":30.2991,"la2":30.254,"lo1":-89.0895,"lo2":-89.0444,"dy":0.0017,"dx":0.0017,"nx":28,"ny":28,"refTime":"2024-12-06T03:00:00:Z","depth":0,"parameterNumber":2,"parameterNumberName":"U-component_of_WINDS"},"data":[0,0,0,0,0,0,0,0,0,0,0,0,0,0,0,0,0,0,0,0,0,0,0,0,0,0,0,0,0,0,0,0,0,0,0,0,0,0,0,0,0,0,0,0,0,0,0,0,0,0,0,0,0,0,0,0,0,0,-3.8564,-3.8565,0,-3.8629,-3.8629,-3.863,-3.849,-3.8486,-3.8481,-3.8477,-3.8545,-3.8551,-3.8557,0,0,0,0,0,0,0,0,0,0,0,0,0,-3.8321,-3.8326,-3.8564,-3.8565,-3.8566,-3.8628,-3.8629,-3.863,-3.8491,-3.8486,-3.848,-3.8475,-3.8543,-3.855,-3.8557,0,0,0,0,0,0,0,0,0,0,0,0,0,-3.841,-3.8328,-3.8564,-3.8504,-3.8499,-3.8628,-3.8629,-3.863,-3.8492,-3.8485,-3.8479,-3.8472,-3.8541,-3.8549,-3.8558,-3.875,0,0,-3.8586,-3.859,0,0,0,0,0,0,0,0,-3.8405,-3.8419,-3.8512,-3.8508,-3.8503,-3.8544,-3.8568,-3.8671,-3.8494,-3.8495,-3.8477,-3.8469,-3.855,-3.8558,-3.8585,-3.8753,-3.8756,-3.8587,-3.8592,-3.8596,-3.8599,0,0,0,0,0,0,0,-3.8399,-3.8416,-3.859,-3.8513,-3.8508,-3.8474,-3.8479,-3.8587,-3.856,-3.8494,-3.8484,-3.8494,-3.8547,-3.8577,-3.8586,-3.8757,-3.8587,-3.8595,-3.86,-3.8604,-3.9083,-3.909,0,0,0,0,0,0,-3.8401,-3.8412,-3.8587,-3.8591,-3.8437,-3.8484,-3.8489,-3.8538,-3.8558,-3.8555,-3.8499,-3.8487,-3.8565,-3.8575,-3.8588,-3.8813,-3.8596,-3.8605,-3.861,-3.9076,-3.9085,-3.9093,0,0,0,0,0,0,-3.8396,-3.8418,-3.8585,-3.8499,-3.8518,-3.8495,-3.8551,-3.8543,-3.8573,-3.8562,-3.8557,-3.8535,-3.856,-3.8575,-3.871,-3.8813,-3.8609,-3.8617,-3.9067,-3.9079,-3.9089,-3.9265,0,0,0,0,0,0,-3.839,-3.8417,-3.8489,-3.8502,-3.8523,-3.8707,-3.8557,-3.8549,-3.8589,-3.8573,-3.8594,-3.8592,-3.8556,-3.8697,-3.8719,-3.8822,-3.8624,-3.9058,-3.9072,-3.9085,-3.925,-3.9281,-3.9307,0,0,0,0,0,-3.8382,-3.8537,-3.8494,-3.8516,-3.8613,-3.8713,-3.8725,-3.868,-3.8597,-3.867,-3.8663,-3.8591,-3.8798,-3.8712,-3.8736,-3.8843,-3.9051,-3.9068,-3.9084,-3.9237,-3.9275,-3.9306,0,0,0,0,0,0,-3.8539,-3.8538,-3.849,-3.8654,-3.8685,-3.8689,-3.878,-3.8721,-3.8777,-3.876,-3.8702,-3.8708,-3.8855,-3.8862,-3.8766,-3.9028,-3.8911,-3.8933,-3.9019,-3.9054,-3.9082,-3.9078,-3.8631,0,0,0,0,0,-3.8592,-3.8673,-3.8668,-3.8813,-3.8831,-3.8803,-3.8845,-3.8808,-3.8837,-3.885,-3.8852,-3.8885,-3.8956,-3.9005,-3.9071,-3.9249,-3.9252,-3.9334,-3.9363,-3.9386,-3.9407,-3.9501,-3.9537,-3.9147,-3.9147,-3.9147,0,0,-3.8704,-3.8714,-3.8769,-3.8845,-3.8864,-3.895,-3.8815,-3.8911,-3.8974,-3.8864,-3.8992,-3.8995,-3.9027,-3.9185,-3.9254,-3.9195,-3.9514,-3.9407,-3.9426,-3.9434,-3.9522,-3.9559,-3.9592,-3.9158,-3.9156,-3.9154,0,0,-3.8952,-3.8967,-3.909,-3.9112,-3.9142,-3.9122,-3.9152,-3.9165,-3.9163,-3.929,-3.9209,-3.9283,-3.9408,-3.9434,-3.9464,-3.9719,-3.9655,-3.9742,-3.9892,-3.9985,-4.0016,-4.0043,-4.0134,-4.0168,-3.9762,-3.9763,-3.9763,0,-3.9088,-3.9213,-3.916,-3.9262,-3.9298,-3.9201,-3.9325,-3.9349,-3.94,-3.9427,-3.9359,-3.9514,-3.9529,-3.9691,-3.9753,-3.978,-3.9812,-3.9741,-4.0015,-4.0042,-4.0066,-4.0153,-4.0188,-3.9773,-3.9772,-3.9771,-3.977,0,-3.9379,-3.9467,-3.9562,-3.9613,-3.9659,-3.9772,-3.9736,-3.9789,-3.9747,-3.9734,-3.9865,-3.9878,-3.9945,-3.998,-3.9941,-4.0137,-4.0099,-4.0025,-3.9905,-4.0115,-4.0196,-4.0228,-3.9788,-3.9784,-3.9781,-3.9779,0,0,-3.973,-3.9748,-3.9784,-3.9806,-3.9832,-3.9899,-4.0006,-4.007,-4.0118,-4.0155,-4.0244,-4.0352,-4.0283,-4.0316,-4.0278,-4.036,-4.0562,-4.0275,-4.0275,-4.0329,-4.0779,-4.0836,-4.0875,-4.0518,-4.0525,-4.0529,-4.0776,0,-3.9975,-4.016,-4.0115,-4.0298,-4.0379,-4.0287,-4.038,-4.0407,-4.0397,-4.0464,-4.0453,-4.0531,-4.0433,-4.0453,-4.0529,-4.0521,-4.0652,-4.0503,-4.0602,-4.0606,-4.0598,-4.0917,-4.0978,-4.121,-4.0808,-4.0813,-4.0817,0,-4.0287,-4.0337,-4.0528,-4.0539,-4.0571,-4.0657,-4.0711,-4.0776,-4.0804,-4.0791,-4.0828,-4.0774,-4.088,-4.0758,-4.0904,-4.0803,-4.0841,-4.0843,-4.0851,-4.086,-4.0725,-4.0936,-4.1283,-4.1319,-4.0866,-4.0862,-4.0858,0,-4.0525,-4.0639,-4.0768,-4.0789,-4.0806,-4.0868,-4.0877,-4.0898,-4.0939,-4.0987,-4.1013,-4.1073,-4.1106,-4.1153,-4.1116,-4.1031,-4.1268,-4.1144,-4.1261,-4.1262,-4.1317,-4.1314,-4.1677,-4.1339,-4.1339,-4.1338,-4.1337,0,-4.0805,-4.0926,-4.0875,-4.0954,-4.1087,-4.1033,-4.1165,-4.1164,-4.1183,-4.1261,-4.1185,-4.1259,-4.1205,-4.1276,-4.1247,-4.1372,-4.1387,-4.138,-4.1372,-4.1388,-4.1389,-4.1413,-4.1396,-4.1347,-4.1345,-4.1343,-4.1342,0,-4.1094,-4.1064,-4.1199,-4.1203,-4.1207,-4.1304,-4.1308,-4.1382,-4.1365,-4.1465,-4.1485,-4.146,-4.1538,-4.1506,-4.1589,-4.1569,-4.173,-4.1699,-4.1721,-4.1714,-4.1833,-4.1823,-4.2225,-4.2275,-4.1904,-4.1908,-4.1911,0,-4.1276,-4.1366,-4.138,-4.1426,-4.1441,-4.1517,-4.1558,-4.1508,-4.1554,-4.1591,-4.1661,-4.1732,-4.1786,-4.1916,-4.1906,-4.1968,-4.1939,-4.2076,-4.1948,-4.1962,-4.1942,-4.1938,-4.1946,-4.2102,-4.2106,-4.211,-4.2112,0,-4.1601,-4.1581,-4.1643,-4.1701,-4.1752,-4.1795,-4.1831,-4.1873,-4.1825,-4.188,-4.1959,-4.2002,-4.2085,-4.2157,-4.2213,-4.2222,-4.2161,-4.2152,-4.2183,-4.2201,-4.221,-4.2208,-4.1792,-4.2144,-4.2141,-4.2138,-4.2137,-4.2135,-4.1842,-4.1918,-4.1939,-4.2011,-4.2032,-4.2068,-4.2137,-4.2129,-4.2193,-4.2258,-4.2224,-4.2316,-4.2339,-4.2407,-4.2425,-4.2496,-4.2443,-4.2487,-4.2498,-4.251,-4.2526,-4.2198,-4.2506,-4.2505,-4.2504,-4.2503,-4.2503,0,-4.2164,-4.2172,-4.2239,-4.2291,-4.2348,-4.2282,-4.2319,-4.237,-4.2452,-4.2479,-4.2534,-4.2624,-4.2693,-4.2687,-4.2751,-4.2809,-4.2782,-4.2827,-4.2823,-4.2826,-4.257,-4.2538,-4.2848,-4.2848,-4.2848,-4.2848,-4.2847,-4.2847,-4.2338,-4.2463,-4.2446,-4.2581,-4.2588,-4.2677,-4.2703,-4.2736,-4.2757,-4.2861,-4.2917,-4.2913,-4.2927,-4.299,-4.305,-4.3047,-4.3074,-4.3131,-4.3117,-4.2878,-4.2844,-4.2812,-4.2781,-4.3137,-4.3137,-4.3367,-4.3369,-4.337]},{"header":{"parameterUnit":"m.s-1","parameterCategory":1,"la1":30.2991,"la2":30.254,"lo1":-89.0895,"lo2":-89.0444,"dy":0.0017,"dx":0.0017,"nx":28,"ny":28,"refTime":"2024-12-06T03:00:00:Z","depth":0,"parameterNumber":3,"parameterNumberName":"V-component_of_WINDS"},"data":[0,0,0,0,0,0,0,0,0,0,0,0,0,0,0,0,0,0,0,0,0,0,0,0,0,0,0,0,0,0,0,0,0,0,0,0,0,0,0,0,0,0,0,0,0,0,0,0,0,0,0,0,0,0,0,0,0,0,-4.5315,-4.5316,0,-4.5363,-4.5363,-4.5364,-4.5304,-4.5302,-4.53,-4.5298,-4.5344,-4.5347,-4.535,0,0,0,0,0,0,0,0,0,0,0,0,0,-4.5169,-4.5172,-4.5315,-4.5316,-4.5317,-4.5363,-4.5363,-4.5364,-4.5305,-4.5302,-4.5299,-4.5297,-4.5343,-4.5346,-4.535,0,0,0,0,0,0,0,0,0,0,0,0,0,-4.5226,-4.5173,-4.5315,-4.5293,-4.5291,-4.5362,-4.5363,-4.5364,-4.5305,-4.5302,-4.5299,-4.5296,-4.5341,-4.5346,-4.5351,-4.5446,0,0,-4.5366,-4.5368,0,0,0,0,0,0,0,0,-4.5223,-4.5232,-4.5295,-4.5294,-4.5293,-4.5324,-4.5328,-4.5391,-4.5306,-4.53,-4.5298,-4.5294,-4.534,-4.5344,-4.536,-4.5448,-4.545,-4.5366,-4.5369,-4.5371,-4.5373,0,0,0,0,0,0,0,-4.5219,-4.5229,-4.5334,-4.5296,-4.5295,-4.5279,-4.5283,-4.534,-4.5337,-4.53,-4.5296,-4.5302,-4.5338,-4.5356,-4.5361,-4.5451,-4.5366,-4.537,-4.5373,-4.5375,-4.5616,-4.5619,0,0,0,0,0,0,-4.5218,-4.5226,-4.5332,-4.5335,-4.5249,-4.5284,-4.5289,-4.5317,-4.5337,-4.5336,-4.5305,-4.5299,-4.5349,-4.5355,-4.5362,-4.5473,-4.5371,-4.5376,-4.5379,-4.5613,-4.5617,-4.5621,0,0,0,0,0,0,-4.5215,-4.5228,-4.533,-4.528,-4.5292,-4.529,-4.5322,-4.532,-4.5337,-4.534,-4.5339,-4.5324,-4.5347,-4.5356,-4.5425,-4.5474,-4.5378,-4.5382,-4.5608,-4.5614,-4.5619,-4.5697,0,0,0,0,0,0,-4.5212,-4.5228,-4.5265,-4.5281,-4.5295,-4.5394,-4.5325,-4.5323,-4.5346,-4.5339,-4.5358,-4.5358,-4.5345,-4.5418,-4.543,-4.5479,-4.5386,-4.5604,-4.5611,-4.5617,-4.569,-4.5704,-4.5716,0,0,0,0,0,-4.5207,-4.5285,-4.5267,-4.528,-4.5341,-4.5397,-4.5405,-4.5389,-4.5351,-4.5387,-4.5389,-4.5357,-4.5467,-4.5426,-4.5439,-4.549,-4.5601,-4.5609,-4.5616,-4.5684,-4.5701,-4.5716,0,0,0,0,0,0,-4.5275,-4.5287,-4.5267,-4.5354,-4.5375,-4.5387,-4.5433,-4.5408,-4.544,-4.5432,-4.5411,-4.5416,-4.549,-4.5497,-4.5451,-4.5581,-4.5527,-4.5538,-4.5574,-4.5591,-4.5603,-4.56,-4.539,0,0,0,0,0,-4.53,-4.5345,-4.5353,-4.5429,-4.544,-4.5435,-4.5459,-4.5445,-4.5465,-4.5474,-4.548,-4.5501,-4.5539,-4.5565,-4.5602,-4.5691,-4.5692,-4.5732,-4.5745,-4.5756,-4.5765,-4.581,-4.5827,-4.5646,-4.5646,-4.5646,0,0,-4.5352,-4.5364,-4.5394,-4.5442,-4.5457,-4.5503,-4.5443,-4.5494,-4.5527,-4.5481,-4.5547,-4.5553,-4.5574,-4.5653,-4.5688,-4.5661,-4.5815,-4.5766,-4.5774,-4.5777,-4.582,-4.5837,-4.5852,-4.5651,-4.5651,-4.565,0,0,-4.547,-4.5486,-4.5549,-4.5564,-4.5587,-4.5583,-4.5598,-4.5614,-4.5616,-4.5682,-4.5647,-4.5686,-4.5754,-4.577,-4.5786,-4.5909,-4.588,-4.5921,-4.5989,-4.6033,-4.6048,-4.606,-4.6102,-4.6117,-4.593,-4.5931,-4.5931,0,-4.5532,-4.5601,-4.5584,-4.5638,-4.5659,-4.5619,-4.5682,-4.5698,-4.5731,-4.5746,-4.5715,-4.5798,-4.581,-4.5891,-4.5921,-4.5937,-4.5951,-4.5918,-4.6047,-4.606,-4.6071,-4.611,-4.6126,-4.5935,-4.5935,-4.5934,-4.5934,0,-4.5675,-4.5723,-4.5771,-4.5804,-4.5831,-4.5889,-4.5879,-4.5907,-4.5891,-4.5889,-4.5955,-4.5968,-4.6005,-4.6023,-4.6008,-4.6101,-4.6084,-4.6051,-4.5996,-4.6093,-4.6129,-4.6145,-4.5942,-4.594,-4.5939,-4.5938,0,0,-4.5838,-4.586,-4.5878,-4.5891,-4.5913,-4.5949,-4.6004,-4.604,-4.6064,-4.6088,-4.6133,-4.619,-4.6159,-4.6178,-4.6164,-4.6203,-4.6297,-4.6165,-4.6165,-4.6187,-4.6398,-4.6421,-4.6439,-4.6278,-4.6281,-4.6283,-4.6395,0,-4.5955,-4.6051,-4.6036,-4.6128,-4.6171,-4.6133,-4.6181,-4.6198,-4.6198,-4.6233,-4.6232,-4.6272,-4.623,-4.624,-4.6277,-4.6278,-4.6338,-4.6269,-4.6317,-4.6319,-4.6312,-4.6459,-4.6484,-4.659,-4.641,-4.6412,-4.6414,0,-4.6104,-4.6133,-4.623,-4.6243,-4.626,-4.6303,-4.6334,-4.6369,-4.6387,-4.6383,-4.6404,-4.6382,-4.6435,-4.638,-4.6452,-4.6405,-4.6424,-4.6427,-4.643,-4.6433,-4.6371,-4.6464,-4.6623,-4.6638,-4.6437,-4.6435,-4.6433,0,-4.6211,-4.6274,-4.6339,-4.6352,-4.637,-4.64,-4.6409,-4.6424,-4.6446,-4.6473,-4.6486,-4.6519,-4.6536,-4.6561,-4.6548,-4.651,-4.6621,-4.6566,-4.6618,-4.6619,-4.6642,-4.6641,-4.6805,-4.6657,-4.6657,-4.6657,-4.6657,0,-4.6342,-4.6402,-4.6387,-4.6427,-4.6492,-4.6474,-4.6539,-4.6543,-4.6556,-4.6595,-4.6564,-4.6601,-4.6582,-4.6617,-4.6607,-4.6666,-4.6675,-4.6672,-4.6669,-4.6674,-4.6674,-4.6685,-4.6677,-4.6661,-4.666,-4.6659,-4.6659,0,-4.6472,-4.6465,-4.6533,-4.6543,-4.6547,-4.6595,-4.6603,-4.6639,-4.6636,-4.6685,-4.6696,-4.669,-4.6729,-4.6719,-4.6762,-4.6755,-4.6829,-4.6817,-4.6823,-4.682,-4.6872,-4.6867,-4.7048,-4.707,-4.691,-4.6911,-4.6912,0,-4.6555,-4.66,-4.6615,-4.6639,-4.665,-4.6689,-4.6711,-4.6694,-4.6718,-4.6741,-4.6775,-4.6811,-4.6839,-4.6904,-4.6903,-4.6935,-4.6922,-4.6983,-4.6926,-4.693,-4.692,-4.6917,-4.6921,-4.6994,-4.6996,-4.6998,-4.6999,0,-4.6703,-4.6697,-4.6731,-4.6763,-4.679,-4.6814,-4.6835,-4.6856,-4.6841,-4.6869,-4.6909,-4.6931,-4.6974,-4.701,-4.7039,-4.7045,-4.7019,-4.7017,-4.703,-4.7036,-4.7037,-4.7035,-4.6852,-4.7012,-4.7011,-4.701,-4.7009,-4.7009,-4.6811,-4.6849,-4.6864,-4.6902,-4.6916,-4.6936,-4.697,-4.6971,-4.7004,-4.7038,-4.7026,-4.7071,-4.7086,-4.7122,-4.7132,-4.7166,-4.7143,-4.7163,-4.7168,-4.7173,-4.7178,-4.7033,-4.7172,-4.7171,-4.7171,-4.7171,-4.717,0,-4.6956,-4.6964,-4.6999,-4.7029,-4.7058,-4.7031,-4.7053,-4.7078,-4.7119,-4.7135,-4.7163,-4.7208,-4.7242,-4.7244,-4.7275,-4.7302,-4.7291,-4.7311,-4.7308,-4.7309,-4.7198,-4.7183,-4.7319,-4.7319,-4.7319,-4.7319,-4.7319,-4.7319,-4.7035,-4.7096,-4.7091,-4.7158,-4.7165,-4.7209,-4.7223,-4.7241,-4.7254,-4.7305,-4.7333,-4.7334,-4.7344,-4.7376,-4.7406,-4.7405,-4.7417,-4.7442,-4.7436,-4.7332,-4.7318,-4.7303,-4.7288,-4.7445,-4.7445,-4.7544,-4.7545,-4.7546]}]]